Time,TemperatureF,DewpointF,PressureIn,WindDirection,WindDirectionDegrees,WindSpeedMPH,WindSpeedGustMPH,Humidity,HourlyPrecipIn,Conditions,Clouds,dailyrainin,SolarRadiationWatts/m^2,SoftwareType,DateUTC
2013-09-23 00:00:00,46.0,46.0,-100.00,SSW,212,13.0,26.0,100,0.04,,,1.13,0.000000,,2013-09-23 07:00:00,
2013-09-23 00:42:00,46.0,46.0,-100.00,SSW,212,13.0,26.0,100,0.04,,,1.13,0.000000,,2013-09-23 07:42:00,
2013-09-23 00:52:00,46.0,46.0,-100.00,SSW,212,13.0,26.0,100,0.04,,,1.13,0.000000,,2013-09-23 07:52:00,
2013-09-23 01:00:00,46.0,46.0,-100.00,SSW,211,12.0,23.0,100,0.00,,,1.09,0.000000,,2013-09-23 08:00:00,
2013-09-23 01:23:00,46.0,46.0,-100.00,SSW,211,12.0,23.0,100,0.00,,,1.09,0.000000,,2013-09-23 08:23:00,
2013-09-23 01:32:00,46.0,46.0,-100.00,SSW,211,12.0,23.0,100,0.00,,,1.09,0.000000,,2013-09-23 08:32:00,
2013-09-23 01:42:00,46.0,46.0,-100.00,SSW,211,12.0,23.0,100,0.00,,,1.09,0.000000,,2013-09-23 08:42:00,
2013-09-23 01:52:00,46.0,46.0,-100.00,SSW,211,12.0,23.0,100,0.00,,,1.09,0.000000,,2013-09-23 08:52:00,
2013-09-23 02:00:00,46.0,46.0,-100.00,SSW,211,14.0,25.0,100,0.00,,,1.09,0.000000,,2013-09-23 09:00:00,
2013-09-23 02:43:00,46.0,46.0,-100.00,SSW,211,14.0,25.0,100,0.00,,,1.09,0.000000,,2013-09-23 09:43:00,
2013-09-23 02:53:00,46.0,46.0,-100.00,SSW,211,14.0,25.0,100,0.00,,,1.09,0.000000,,2013-09-23 09:53:00,
2013-09-23 03:00:00,45.0,45.0,-100.00,SSW,209,15.0,29.0,100,0.01,,,1.08,0.000000,,2013-09-23 10:00:00,
2013-09-23 03:42:00,45.0,45.0,-100.00,SSW,209,15.0,29.0,100,0.01,,,1.08,0.000000,,2013-09-23 10:42:00,
2013-09-23 03:52:00,45.0,45.0,-100.00,SSW,209,15.0,29.0,100,0.01,,,1.08,0.000000,,2013-09-23 10:52:00,
2013-09-23 04:00:00,43.0,43.0,-100.00,SW,214,14.0,27.0,100,0.04,,,1.12,0.000000,,2013-09-23 11:00:00,
2013-09-23 04:42:00,43.0,43.0,-100.00,SW,214,14.0,27.0,100,0.04,,,1.12,0.000000,,2013-09-23 11:42:00,
2013-09-23 04:52:00,43.0,43.0,-100.00,SW,214,14.0,27.0,100,0.04,,,1.12,0.000000,,2013-09-23 11:52:00,
2013-09-23 05:00:00,44.0,44.0,-100.00,SSW,213,13.0,23.0,100,0.01,,,1.04,0.000000,,2013-09-23 12:00:00,
2013-09-23 05:22:00,44.0,44.0,-100.00,SSW,213,13.0,23.0,100,0.01,,,1.04,0.000000,,2013-09-23 12:22:00,
2013-09-23 05:32:00,44.0,44.0,-100.00,SSW,213,13.0,23.0,100,0.01,,,1.04,0.000000,,2013-09-23 12:32:00,
2013-09-23 05:42:00,44.0,44.0,-100.00,SSW,213,13.0,23.0,100,0.01,,,1.04,0.000000,,2013-09-23 12:42:00,
2013-09-23 05:52:00,44.0,44.0,-100.00,SSW,213,13.0,23.0,100,0.01,,,1.04,0.000000,,2013-09-23 12:52:00,
2013-09-23 06:00:00,44.0,44.0,-100.00,SW,217,12.0,22.0,100,0.12,,,1.13,0.000000,,2013-09-23 13:00:00,
2013-09-23 06:22:00,44.0,44.0,-100.00,SW,217,12.0,22.0,100,0.12,,,1.13,0.000000,,2013-09-23 13:22:00,
2013-09-23 06:32:00,44.0,44.0,-100.00,SW,217,12.0,22.0,100,0.12,,,1.13,0.000000,,2013-09-23 13:32:00,
2013-09-23 06:42:00,44.0,44.0,-100.00,SW,217,12.0,22.0,100,0.12,,,1.13,0.000000,,2013-09-23 13:42:00,
2013-09-23 06:52:00,44.0,44.0,-100.00,SW,217,12.0,22.0,100,0.12,,,1.13,0.000000,,2013-09-23 13:52:00,
2013-09-23 07:00:00,44.0,44.0,-100.00,SSW,211,12.0,20.0,100,0.01,,,-99.99,0.000000,,2013-09-23 14:00:00,
2013-09-23 07:42:00,44.0,44.0,-100.00,SSW,211,12.0,20.0,100,0.01,,,-99.99,0.000000,,2013-09-23 14:42:00,
2013-09-23 07:52:00,44.0,44.0,-100.00,SSW,211,12.0,20.0,100,0.01,,,-99.99,0.000000,,2013-09-23 14:52:00,
2013-09-23 08:00:00,46.0,46.0,-100.00,SW,215,10.0,22.0,100,0.09,,,1.22,2.000000,,2013-09-23 15:00:00,
2013-09-23 08:22:00,46.0,46.0,-100.00,SW,215,10.0,22.0,100,0.09,,,1.22,2.000000,,2013-09-23 15:22:00,
2013-09-23 08:33:00,46.0,46.0,-100.00,SW,215,10.0,22.0,100,0.09,,,1.22,2.000000,,2013-09-23 15:33:00,
2013-09-23 08:43:00,46.0,46.0,-100.00,SW,215,10.0,22.0,100,0.09,,,1.22,2.000000,,2013-09-23 15:43:00,
2013-09-23 08:54:00,46.0,46.0,-100.00,SW,215,10.0,22.0,100,0.09,,,1.22,2.000000,,2013-09-23 15:54:00,
2013-09-23 09:00:00,45.0,45.0,-100.00,SW,218,8.0,18.0,100,0.02,,,1.21,45.000000,,2013-09-23 16:00:00,
2013-09-23 09:43:00,45.0,45.0,-100.00,SW,218,8.0,18.0,100,0.02,,,1.21,45.000000,,2013-09-23 16:43:00,
2013-09-23 09:53:00,45.0,45.0,-100.00,SW,218,8.0,18.0,100,0.02,,,1.21,45.000000,,2013-09-23 16:53:00,
2013-09-23 10:00:00,47.0,47.0,-100.00,SSW,212,7.0,14.0,100,0.00,,,1.13,226.000000,,2013-09-23 17:00:00,
2013-09-23 10:24:00,47.0,47.0,-100.00,SSW,212,7.0,14.0,100,0.00,,,1.13,226.000000,,2013-09-23 17:24:00,
2013-09-23 10:34:00,47.0,47.0,-100.00,SSW,212,7.0,14.0,100,0.00,,,1.13,226.000000,,2013-09-23 17:34:00,
2013-09-23 10:42:00,47.0,47.0,-100.00,SSW,212,7.0,14.0,100,0.00,,,1.13,226.000000,,2013-09-23 17:42:00,
2013-09-23 10:52:00,47.0,47.0,-100.00,SSW,212,7.0,14.0,100,0.00,,,1.13,226.000000,,2013-09-23 17:52:00,
2013-09-23 11:00:00,46.0,46.0,-100.00,SW,217,7.0,17.0,100,0.07,,,1.07,86.000000,,2013-09-23 18:00:00,
2013-09-23 11:42:00,46.0,46.0,-100.00,SW,217,7.0,17.0,100,0.07,,,1.07,86.000000,,2013-09-23 18:42:00,
2013-09-23 11:52:00,46.0,46.0,-100.00,SW,217,7.0,17.0,100,0.07,,,1.07,86.000000,,2013-09-23 18:52:00,
2013-09-23 12:00:00,49.0,49.0,-100.00,SW,216,8.0,15.0,100,0.00,,,0.70,198.000000,,2013-09-23 19:00:00,
2013-09-23 12:42:00,49.0,49.0,-100.00,SW,216,8.0,15.0,100,0.00,,,0.70,198.000000,,2013-09-23 19:42:00,
2013-09-23 12:53:00,49.0,49.0,-100.00,SW,216,8.0,15.0,100,0.00,,,0.70,198.000000,,2013-09-23 19:53:00,
2013-09-23 13:00:00,50.0,50.0,-100.00,SW,216,9.0,15.0,100,0.01,,,0.62,342.000000,,2013-09-23 20:00:00,
2013-09-23 13:22:00,50.0,50.0,-100.00,SW,216,9.0,15.0,100,0.01,,,0.62,342.000000,,2013-09-23 20:22:00,
2013-09-23 13:32:00,50.0,50.0,-100.00,SW,216,9.0,15.0,100,0.01,,,0.62,342.000000,,2013-09-23 20:32:00,
2013-09-23 13:42:00,50.0,50.0,-100.00,SW,216,9.0,15.0,100,0.01,,,0.62,342.000000,,2013-09-23 20:42:00,
2013-09-23 13:52:00,50.0,50.0,-100.00,SW,216,9.0,15.0,100,0.01,,,0.62,342.000000,,2013-09-23 20:52:00,
2013-09-23 14:00:00,53.0,53.0,-100.00,SW,215,9.0,17.0,100,0.00,,,0.50,690.000000,,2013-09-23 21:00:00,
2013-09-23 14:44:00,53.0,53.0,-100.00,SW,215,9.0,17.0,100,0.00,,,0.50,690.000000,,2013-09-23 21:44:00,
2013-09-23 14:54:00,53.0,53.0,-100.00,SW,215,9.0,17.0,100,0.00,,,0.50,690.000000,,2013-09-23 21:54:00,
2013-09-23 15:00:00,52.0,50.0,-100.00,SW,221,9.0,20.0,93,0.00,,,0.49,763.000000,,2013-09-23 22:00:00,
2013-09-23 15:43:00,52.0,50.0,-100.00,SW,221,9.0,20.0,93,0.00,,,0.49,763.000000,,2013-09-23 22:43:00,
2013-09-23 15:54:00,52.0,50.0,-100.00,SW,221,9.0,20.0,93,0.00,,,0.49,763.000000,,2013-09-23 22:54:00,
2013-09-23 16:00:00,54.0,46.0,-100.00,SSW,211,8.0,16.0,74,0.00,,,0.49,693.000000,,2013-09-23 23:00:00,
2013-09-23 16:42:00,54.0,46.0,-100.00,SSW,211,8.0,16.0,74,0.00,,,0.49,693.000000,,2013-09-23 23:42:00,
2013-09-23 16:54:00,54.0,46.0,-100.00,SSW,211,8.0,16.0,74,0.00,,,0.49,693.000000,,2013-09-23 23:54:00,
2013-09-23 17:00:00,49.0,49.0,-100.00,SW,214,8.0,14.0,99,0.00,,,0.46,216.000000,,2013-09-24 00:00:00,
2013-09-23 17:22:00,49.0,49.0,-100.00,SW,214,8.0,14.0,99,0.00,,,0.46,216.000000,,2013-09-24 00:22:00,
2013-09-23 17:32:00,49.0,49.0,-100.00,SW,214,8.0,14.0,99,0.00,,,0.46,216.000000,,2013-09-24 00:32:00,
2013-09-23 17:43:00,49.0,49.0,-100.00,SW,214,8.0,14.0,99,0.00,,,0.46,216.000000,,2013-09-24 00:43:00,
2013-09-23 17:52:00,49.0,49.0,-100.00,SW,214,8.0,14.0,99,0.00,,,0.46,216.000000,,2013-09-24 00:52:00,
2013-09-23 18:00:00,48.0,47.0,-100.00,SW,216,10.0,18.0,97,0.00,,,0.44,156.000000,,2013-09-24 01:00:00,
2013-09-23 18:22:00,48.0,47.0,-100.00,SW,216,10.0,18.0,97,0.00,,,0.44,156.000000,,2013-09-24 01:22:00,
2013-09-23 18:32:00,48.0,47.0,-100.00,SW,216,10.0,18.0,97,0.00,,,0.44,156.000000,,2013-09-24 01:32:00,
2013-09-23 18:43:00,48.0,47.0,-100.00,SW,216,10.0,18.0,97,0.00,,,0.44,156.000000,,2013-09-24 01:43:00,
2013-09-23 18:52:00,48.0,47.0,-100.00,SW,216,10.0,18.0,97,0.00,,,0.44,156.000000,,2013-09-24 01:52:00,
2013-09-23 19:00:00,45.0,45.0,-100.00,SW,217,7.0,17.0,100,0.00,,,0.44,83.000000,,2013-09-24 02:00:00,
2013-09-23 19:42:00,45.0,45.0,-100.00,SW,217,7.0,17.0,100,0.00,,,0.44,83.000000,,2013-09-24 02:42:00,
2013-09-23 19:52:00,45.0,45.0,-100.00,SW,217,7.0,17.0,100,0.00,,,0.44,83.000000,,2013-09-24 02:52:00,
2013-09-23 20:00:00,46.0,46.0,-100.00,SW,216,5.0,12.0,100,0.01,,,0.45,1.000000,,2013-09-24 03:00:00,
2013-09-23 20:44:00,46.0,46.0,-100.00,SW,216,5.0,12.0,100,0.01,,,0.45,1.000000,,2013-09-24 03:44:00,
2013-09-23 20:54:00,46.0,46.0,-100.00,SW,216,5.0,12.0,100,0.01,,,0.45,1.000000,,2013-09-24 03:54:00,
2013-09-23 21:00:00,42.0,42.0,-100.00,SSW,212,7.0,10.0,100,0.00,,,0.45,0.000000,,2013-09-24 04:00:00,
2013-09-23 21:24:00,42.0,42.0,-100.00,SSW,212,7.0,10.0,100,0.00,,,0.45,0.000000,,2013-09-24 04:24:00,
2013-09-23 21:34:00,42.0,42.0,-100.00,SSW,212,7.0,10.0,100,0.00,,,0.45,0.000000,,2013-09-24 04:34:00,
2013-09-23 21:44:00,42.0,42.0,-100.00,SSW,212,7.0,10.0,100,0.00,,,0.45,0.000000,,2013-09-24 04:44:00,
2013-09-23 21:54:00,42.0,42.0,-100.00,SSW,212,7.0,10.0,100,0.00,,,0.45,0.000000,,2013-09-24 04:54:00,
2013-09-23 22:00:00,43.0,43.0,-100.00,SSW,212,6.0,12.0,100,0.01,,,0.46,0.000000,,2013-09-24 05:00:00,
2013-09-23 22:23:00,43.0,43.0,-100.00,SSW,212,6.0,12.0,100,0.01,,,0.46,0.000000,,2013-09-24 05:23:00,
2013-09-23 22:34:00,43.0,43.0,-100.00,SSW,212,6.0,12.0,100,0.01,,,0.46,0.000000,,2013-09-24 05:34:00,
2013-09-23 22:43:00,43.0,43.0,-100.00,SSW,212,6.0,12.0,100,0.01,,,0.46,0.000000,,2013-09-24 05:43:00,
2013-09-23 22:53:00,43.0,43.0,-100.00,SSW,212,6.0,12.0,100,0.01,,,0.46,0.000000,,2013-09-24 05:53:00,
2013-09-23 23:00:00,41.0,41.0,-100.00,SSW,208,9.0,13.0,100,0.00,,,0.44,0.000000,,2013-09-24 06:00:00,
2013-09-23 23:42:00,41.0,41.0,-100.00,SSW,208,9.0,13.0,100,0.00,,,0.44,0.000000,,2013-09-24 06:42:00,
2013-09-23 23:52:00,41.0,41.0,-100.00,SSW,208,9.0,13.0,100,0.00,,,0.44,0.000000,,2013-09-24 06:52:00,